Regional Weather Roundup
Issued by NWS Grand Forks, ND

Home | Current Version | Previous Version | Graphics & Text | Print | Product List | Glossary On
Versions: 1 2 3 4 5 6 7 8 9 10 11 12 13 14 15 16 17 18 19 20 21 22 23 24 25 26 27 28 29 30 31 32 33 34 35 36 37 38 39 40 41 42 43 44 45 46 47 48 49 50
000
ASUS43 KFGF 310131
RWRFGF
PRAIRIE TO PINES  WEATHER ROUNDUP
NATIONAL WEATHER SERVICE EASTERN NORTH DAKOTA/GRAND FORKS ND
800 PM CDT WED JUL 30 2014

 **SATELLITE DATA USED TO AUGMENT SKY COVER AT AUTOMATED STATIONS**
 *****  WEATHER ACROSS EASTERN NORTH DAKOTA  *****

CITY           SKY/WX    TMP DP  RH WIND       PRES   REMARKS
GRAND FORKS    PTCLDY    76  59  55 N6        30.03F
GRAND FRKS AFB CLEAR     75  60  60 N3        30.05S
GRAND FRKS NWS   N/A     73 N/A N/A N3          N/A
DEVILS LAKE    SUNNY     73  57  56 NW6       30.07S
FARGO          CLEAR     78  55  44 W8        30.04S
WAHPETON ARPT  CLEAR     72  52  49 NW3       30.05F
$$

 ***** WEATHER ACROSS CENTRAL AND WESTERN NORTH DAKOTA  *****

CITY           SKY/WX    TMP DP  RH WIND       PRES   REMARKS
BISMARCK       MOSUNNY   79  56  45 E7        30.10S
MINOT          SUNNY     76  59  55 N6        30.10S
JAMESTOWN      SUNNY     75  56  51 N5        30.08S
MINOT AFB      SUNNY     78  53  42 NW6       30.10S
GARRISON         N/A     78  59  51 N3        30.11S
WILLISTON      SUNNY     82  44  26 NE8       30.12S
DICKINSON      SUNNY     80  50  34 N6        30.12S
HETTINGER      SUNNY     79  53  40 N6        30.15S
$$

 *****  OTHER AIRPORT OBSERVATIONS IN OUR AREA  *****

CITY           SKY/WX    TMP DP  RH WIND       PRES   REMARKS
WALHALLA       FAIR      75  63  64 W3          N/A
GRAFTON AIRPOR FAIR      75  59  57 CALM      30.04S
VALLEY CITY AR FAIR      73  57  56 NW5       30.08S
CANDO          FAIR      72  63  73 NW5       30.09S
CAVALIER APRT  FAIR      75  64  69 W3        30.04S
GWINNER        CLEAR     75  57  53 CALM      30.08S
SHEYENNE NWR     N/A     79  54  41 NW2       29.95
ROLLA          FAIR      70  63  78 NW6       30.11F
 ***** THE ABOVE OBSERVATIONS ARE NON NWS ARE NOT QUALITY
       CONTROLLED AND MAY MIS-REPORT RAIN FOR SNOW...
$$

  *****  WEATHER ACROSS NORTHERN MINNESOTA  *****

CITY           SKY/WX    TMP DP  RH WIND       PRES   REMARKS
FLAG ISLAND    CLEAR     75  61  60 NW8       29.98S
WARROAD        CLEAR     73  63  68 W5        30.01S
ROSEAU         CLEAR     73  61  64 W7        30.02S
HALLOCK        CLEAR     75  61  60 NW5       30.02F
THF RVR FALLS  CLEAR     72  57  60 W5        30.04F
BAUDETTE       CLOUDY    74  59  59 CALM      30.01S
WASKISH        CLEAR     72  61  68 W7        30.01S
CROOKSTON      CLEAR     72  61  68 N3        30.04S
$$
  *****  WEATHER ACROSS CENTRAL AND WEST MINNESOTA  *****

CITY           SKY/WX    TMP DP  RH WIND       PRES   REMARKS
FOSSTON        CLEAR     70  57  64 CALM      30.06S
BEMIDJI        CLEAR     70  53  55 W7        30.04F
PARK RAPIDS    CLEAR     71  55  56 NW7       30.06S
ELBOW LAKE     FAIR      72  59  64 CALM      30.06S
WADENA         CLEAR     68  57  68 CALM      30.06S
DETROIT LAKES  CLEAR     72  55  56 CALM      30.07F
MOORHEAD       CLEAR     75  61  60 CALM      30.05S
FERGUS FALLS   CLEAR     73  54  49 CALM      30.05S
MORRIS MN      CLEAR     72  61  68 CALM      30.06S
STAPLES        CLEAR     68  55  64 W5        30.06S
$$
  *****  WEATHER ELSEWHERE ACROSS MINNESOTA  *****

CITY           SKY/WX    TMP DP  RH WIND       PRES   REMARKS
DULUTH         PTCLDY    72  57  59 NW8       29.98S
INTRNTL FALLS  PTCLDY    71  60  68 W5        29.98S
ELY            CLEAR     64  61  88 CALM      29.98S
CLOQUET        CLEAR     70  57  64 W6        29.99S
WHEATON        CLEAR     72  57  60 CALM      30.08S
BRAINERD       PTCLDY    73  57  57 NW7       30.04S
HIBBING        PTCLDY    72  56  57 W6        29.99F
ALEXANDRIA     CLEAR     74  54  49 NW5       30.08F
SAINT CLOUD    CLEAR     76  54  46 NW8       30.03F
MINNEAPOLIS    CLEAR     77  55  46 W12       30.03S
$$

  *****  WEATHER ACROSS SOUTH DAKOTA  *****

CITY           SKY/WX    TMP DP  RH WIND       PRES   REMARKS
SIOUX FALLS    CLEAR     75  55  49 CALM      30.09F
BROOKINGS      NOT AVBL
WATERTOWN      CLEAR     73  55  53 N3        30.09F
HURON          CLEAR     78  55  44 NE6       30.07S
SISSETON         N/A     75  59  57 N3        30.06F
ABERDEEN       CLEAR     75  55  49 NE3       30.08S
MITCHELL       CLEAR     76  60  57 SE5       30.08F
PIERRE         SUNNY     84  53  34 E6        30.04S
MOBRIDGE       MOSUNNY   80  59  48 NE7       30.06S
RAPID CITY     MOSUNNY   80  49  33 N7        30.15R
$$

  *****  SOME WEATHER IN NEARBY STATES *****

CITY           SKY/WX    TMP DP  RH WIND       PRES   REMARKS
GLASGOW MT     SUNNY     91  41  17 SE8       30.05F
GREAT FALLS MT PTSUNNY   86  40  19 N18G28    30.08S
CHEYENNE WY    CLOUDY    60  55  83 S8        30.36S
SCOTTSBLUFF NE CLOUDY    74  56  53 SW9       30.23R
OMAHA NE       MOCLDY    76  54  46 NE6       30.09S
DES MOINES IA  PTCLDY    77  54  44 N5        30.07R
DAVENPORT IA   CLEAR     71  61  70 NW5       30.04S
CHICAGO IL     PTCLDY    70  56  61 E6        30.01R
EAU CLAIRE WI  CLOUDY    66  64  93 S6        30.00F
LA CROSSE WI   CLEAR     75  60  59 SW3       30.01S
$$

  *****  SOME NATIONAL WEATHER *****

CITY           SKY/WX    TMP DP  RH WIND       PRES   REMARKS
LA GUARDIA NY  PTCLDY    74  57  55 S9        30.03R
RALEIGH NC     MOCLDY    71  65  81 CALM      30.07R
ATLANTA GA     MOCLDY    80  56  43 VRB6      30.03S
NEW ORLEANS LA PTCLDY    81  61  50 N8        30.01R
OKLAHOMA CITY  LGT RAIN  70  66  88 NE16      29.97S
ALBUQUERQUE NM PTSUNNY   88  50  27 SE9       30.11S
SALT LAKE CITY MOSUNNY   79  55  43 SE9       30.12F
LOS ANGELES CA PTSUNNY   72  62  71 W10       29.91S
BOISE ID       MOSUNNY   88  43  20 E21G30    30.05R
SEATTLE WA     MOSUNNY   82  45  27 N14       30.10F
$$

*** WEATHER ACROSS MANITOBA...SASKATCHEWAN AND ONTARIO ***
                ***ONTARIO***

CITY           SKY/WX    TMP DP  RH WIND       PRES   REMARKS
GERALDTON      CLOUDY    61  54  77 N3        29.92S
THUNDER BAY    CLOUDY    63  59  88 NE5       29.92S
SIOUX LOOKOUT  PTCLDY    68  52  56 N5        29.97S
TORONTO        MOCLDY    68  55  64 N9        29.96R
BIG TROUT LK   CLEAR     68  45  42 N9        29.96S
PICKLE LAKE    MOCLDY    66  43  42 NE7       29.96S
DRYDEN         CLEAR     72  52  49 NW5       29.99S
KENORA         NOT AVBL
$$
                *** MANITOBA***

CITY           SKY/WX    TMP DP  RH WIND       PRES   REMARKS
BRANDON        PTSUNNY   75  63  64 N5        30.08F
DAUPHIN        SUNNY     75  61  60 NW5       30.06S
ISLAND LAKE    MOCLDY    72  50  46 NE6       30.04S
PILOT MOUND      N/A     75  57  53 NW2         N/A
THE PAS        MOSUNNY   81  61  50 S5        30.03S
THOMPSON       MOSUNNY   81  54  39 E3        30.04S
WINNIPEG       PTSUNNY   75  63  64 NW8       30.02S
LYNN LAKE      SUNNY     81  48  32 E6        30.05S
CHURCHILL      MOSUNNY   64  50  59 SE8       30.11S
GILLAM         CLOUDY    70  52  52 CALM      30.08R
$$
                ***SASKATCHEWAN***

CITY           SKY/WX    TMP DP  RH WIND       PRES   REMARKS
ESTEVAN        PTSUNNY   77  55  47 E3        30.12F
KINDERSLEY     PTSUNNY   81  70  69 NE7       30.02S
LLOYDMINSTER   MOSUNNY   79  64  61 E8        30.04F
PRINCE ALBERT  CLOUDY    79  63  57 SE3       30.07F
REGINA         PTSUNNY   73  59  60 E9        30.10R
YORKTON        SUNNY     77  55  47 SE5       30.10F
N. BATTLEFORD    N/A     77  64  65 E8        30.07S
LA RONGE       PTSUNNY   81  59  47 SW5       30.06S
SASKATOON      MOSUNNY   79  59  50 SE16      30.07S
SWIFT CURRENT  SUNNY     79  46  31 W13G18    30.03S
$$
NOTE: THESE ARE AUTOMATED STATIONS WITH LIMITED QUALITY CONTROL
      "FAIR" INDICATES FEW OR NO CLOUDS BELOW 12,000 FEET WITH NO
      SIGNIFICANT WEATHER AND/OR OBSTRUCTIONS TO VISIBILITY.
      SKY/WX - SKY CONDITION AND SIGNIFICANT WEATHER.
      TMP - AIR TEMPERATURE.    DP   - DEWPOINT TEMPERATURE.
      RH  - RELATIVE HUMIDITY.  PRES - PRESSURE.
      HX  - HEAT INDEX.         WCI  - WIND CHILL INDEX.
$



USA.gov is the U.S. government's official web portal to all federal, state and local government web resources and services.